Sky Queen — 3EHV9 — position and weather

sailwx.info

Track history (hours):
 
Tides and Currents Weather Stations Pressure Air Temp Water Temp Dewpoint Dewpoint Depression Visibility Wind Speed Wind Dir Waves Ship Positions

Sky Queen

Last reported at 2014-Nov-01 02:31 UTC. Time now 2014-Nov-01 08:24 UTC.
Position N 31°06' E 121°27'.

Length 89 m; draft 4.5 m.

Type: Cargo ship. MMSI: 372259000.

Date/timePositionNaut miles runAvg speedWind from/ knotsBaromVisibWave heightAir tempDewpointWater temp
2014-Nov-01 02:31N 31°06' E 121°27'6 5.2
2014-Nov-01 01:24N 31°12' E 121°29'5 5.4
2014-Nov-01 00:33N 31°15' E 121°32'6 5.6
2014-Oct-31 23:33N 31°21' E 121°31'4 3.6
2014-Oct-31 22:33N 31°24' E 121°34'10 8.7
2014-Oct-31 21:27N 31°18' E 121°43'  
2014-Oct-24 05:27N 34°37' E 135°01'6 6.6
2014-Oct-24 04:33N 34°35' E 135°08'10 9.5
2014-Oct-24 03:33N 34°33' E 135°19'3 0.1
2014-Oct-22 22:30N 34°32' E 135°23'7 7.3
2014-Oct-22 21:33N 34°31' E 135°14'1 0.8
2014-Oct-22 20:33N 34°32' E 135°14'7 6.7
2014-Oct-22 19:33N 34°34' E 135°07'  
Track history (hours):
 
Tides and Currents Weather Stations Pressure Air Temp Water Temp Dewpoint Dewpoint Depression Visibility Wind Speed Wind Dir Waves Ship Positions

Sky Queen

Last reported at 2014-Nov-01 02:31 UTC. Time now 2014-Nov-01 08:24 UTC.
Position N 31°06' E 121°27'.

Length 89 m; draft 4.5 m.

Type: Cargo ship. MMSI: 372259000.

Date/timePositionNaut miles runAvg speedWind from/ knotsBaromVisibWave heightAir tempDewpointWater temp
2014-Nov-01 02:31N 31°06' E 121°27'6 5.2
2014-Nov-01 01:24N 31°12' E 121°29'5 5.4
2014-Nov-01 00:33N 31°15' E 121°32'6 5.6
2014-Oct-31 23:33N 31°21' E 121°31'4 3.6
2014-Oct-31 22:33N 31°24' E 121°34'10 8.7
2014-Oct-31 21:27N 31°18' E 121°43'  
2014-Oct-24 05:27N 34°37' E 135°01'6 6.6
2014-Oct-24 04:33N 34°35' E 135°08'10 9.5
2014-Oct-24 03:33N 34°33' E 135°19'3 0.1
2014-Oct-22 22:30N 34°32' E 135°23'7 7.3
2014-Oct-22 21:33N 34°31' E 135°14'1 0.8
2014-Oct-22 20:33N 34°32' E 135°14'7 6.7
2014-Oct-22 19:33N 34°34' E 135°07'  

Dump ship's entire track history